EW0641 Weather Reports


Display with metric or nautical units.
time (UTC)temp
F
wind
direction
speed
MPH
gust
MPH
rain 1hr
in
rain 24hr
in
rain mn
in
humidity
%
barometer
mb
20260510130009 51 19 0.0 0.0 0.00 0.03 0.00 60 1016.2
20260510124507 50 60 0.0 0.0 0.00 0.03 0.00 61 1015.9
20260510123008 49 65 0.0 0.0 0.00 0.03 0.00 62 1015.7
20260510121505 49 57 0.0 0.0 0.00 0.03 0.00 65 1015.6
20260510120005 48 57 0.0 0.0 0.00 0.03 0.00 67 1015.6
20260510114502 47 76 0.0 0.0 0.00 0.03 0.00 72 1015.4
20260510113106 46 104 0.0 0.0 0.00 0.03 0.00 79 1015.0
20260510111610 43 109 0.0 0.0 0.00 0.03 0.00 84 1014.8
20260510110054 42 109 0.0 0.0 0.00 0.03 0.00 84 1014.6
20260510104552 42 109 0.0 0.0 0.00 0.03 0.00 83 1014.4
20260510103050 42 109 0.0 0.0 0.00 0.03 0.00 82 1014.1
20260510101551 42 109 0.0 0.0 0.00 0.03 0.00 81 1014.0
20260510100048 43 109 0.0 0.0 0.00 0.03 0.00 81 1013.9
20260510094544 43 109 0.0 0.0 0.00 0.03 0.00 80 1013.9
20260510093058 44 109 0.0 0.0 0.00 0.03 0.00 78 1013.7
20260510091538 45 109 0.0 0.0 0.00 0.03 0.00 76 1013.5
20260510090046 46 109 0.0 0.0 0.00 0.03 0.00 75 1013.1
20260510084533 46 110 0.0 0.0 0.00 0.03 0.00 75 1012.8
20260510083027 47 116 0.0 0.0 0.00 0.03 0.00 76 1012.4
20260510081526 47 141 0.0 0.0 0.00 0.03 0.00 75 1012.0
20260510080022 47 111 0.0 0.0 0.00 0.03 0.00 75 1011.7
20260510074520 48 107 0.0 0.0 0.00 0.03 0.00 73 1011.3
20260510073017 49 85 0.0 0.0 0.00 0.03 0.00 73 1010.9
20260510071512 49 105 0.0 0.0 0.00 0.03 0.00 73 1010.7
20260510070007 52 93 0.0 0.0 0.00 0.03 0.00 66 1010.4
20260510064507 51 74 0.0 0.0 0.00 0.03 0.00 66 1010.1
20260510063005 52 74 0.0 0.0 0.00 0.03 0.00 65 1010.0
20260510061502 52 74 0.0 0.0 0.00 0.03 0.00 63 1010.0
20260510060059 53 74 0.0 0.0 0.00 0.03 0.00 62 1009.8
20260510054557 53 74 0.0 0.0 0.00 0.03 0.00 61 1009.8
20260510053057 54 77 0.0 0.0 0.00 0.03 0.00 61 1009.6
20260510051556 54 77 0.0 0.0 0.00 0.03 0.00 60 1009.2
20260510050053 55 76 0.0 0.0 0.00 0.03 0.00 59 1009.0
20260510044605 55 82 0.0 0.0 0.00 0.03 0.00 59 1008.7
20260510043044 56 78 0.0 0.0 0.00 0.03 0.00 59 1008.5
20260510041541 57 56 0.0 0.0 0.00 0.03 0.00 58 1008.4
20260510040037 59 103 0.0 0.0 0.00 0.03 0.00 55 1008.1
20260510034535 60 36 0.0 0.0 0.00 0.03 0.03 50 1007.7
20260510033033 60 5 0.0 0.0 0.00 0.03 0.03 50 1007.6
20260510031534 61 5 0.0 0.0 0.00 0.03 0.03 51 1007.2
20260510030037 62 22 0.0 0.0 0.00 0.03 0.03 50 1006.9
20260510024529 63 355 0.0 0.0 0.00 0.03 0.03 51 1006.5
20260510023029 63 10 0.0 0.0 0.00 0.03 0.03 53 1006.0
20260510021530 63 12 0.0 0.0 0.00 0.03 0.03 52 1005.5
20260510020029 62 350 0.0 0.0 0.00 0.03 0.03 53 1005.1
20260510014528 63 315 0.0 0.0 0.00 0.03 0.03 51 1004.7
20260510013026 64 315 0.0 0.0 0.00 0.03 0.03 49 1004.3
20260510011526 65 315 0.0 0.0 0.00 0.03 0.03 47 1004.0
20260510010025 66 307 0.0 0.0 0.00 0.03 0.03 45 1003.8
20260510004524 67 307 0.0 0.0 0.00 0.03 0.03 43 1003.6
20260510003027 68 292 0.0 0.0 0.00 0.03 0.03 41 1003.4
20260510001523 68 347 0.0 0.0 0.00 0.03 0.03 40 1003.3
20260510000023 69 296 0.0 0.0 0.00 0.03 0.03 40 1003.2
20260509234521 69 341 0.0 0.0 0.00 0.03 0.03 38 1003.1
20260509233025 70 337 0.0 0.0 0.00 0.03 0.03 40 1003.0
20260509231519 70 306 0.0 0.0 0.00 0.03 0.03 39 1002.7
20260509230020 70 290 0.0 0.0 0.00 0.03 0.03 37 1002.6
20260509224521 71 19 0.0 0.0 0.00 0.03 0.03 38 1002.3
20260509223018 71 299 0.0 0.0 0.00 0.03 0.03 39 1002.1
20260509221517 71 321 0.0 0.0 0.00 0.03 0.03 40 1001.7
20260509220017 71 301 0.0 0.0 0.00 0.03 0.03 47 1001.6
20260509214514 71 297 0.0 0.0 0.00 0.03 0.03 47 1001.5
20260509213012 70 319 0.0 0.0 0.00 0.03 0.03 51 1001.5
20260509211509 69 277 0.0 0.0 0.00 0.03 0.03 53 1001.6
20260509210008 68 325 0.0 0.0 0.02 0.03 0.03 58 1001.4
20260509204507 65 355 0.0 0.0 0.03 0.03 0.03 72 1001.5
20260509203007 63 355 0.0 0.0 0.03 0.03 0.03 77 1001.6
20260509201506 61 5 0.0 0.0 0.03 0.03 0.03 82 1001.8
20260509200005 61 320 0.0 0.0 0.00 0.00 0.00 78 1002.3
20260509194505 64 355 0.0 0.0 0.00 0.00 0.00 68 1002.4
20260509193005 65 264 0.0 0.0 0.00 0.00 0.00 67 1001.6
20260509191504 67 293 0.0 0.0 0.00 0.00 0.00 66 1001.7
20260509190005 68 223 0.0 0.0 0.00 0.00 0.00 61 1001.3
20260509184505 69 237 0.0 0.0 0.00 0.00 0.00 61 1001.5
20260509183100 69 271 0.0 0.0 0.00 0.00 0.00 61 1001.6
20260509181601 68 250 0.0 0.0 0.00 0.00 0.00 63 1001.7
20260509180104 67 252 0.0 0.0 0.00 0.00 0.00 66 1002.0
20260509174552 66 223 0.0 0.0 0.00 0.00 0.00 67 1002.1
20260509173100 66 245 0.0 0.0 0.00 0.00 0.00 70 1002.2
20260509171547 65 230 0.0 0.0 0.00 0.00 0.00 69 1002.3
20260509170046 63 236 0.0 0.0 0.00 0.00 0.00 73 1002.4
20260509164554 63 216 0.0 0.0 0.00 0.00 0.00 74 1002.7
20260509163043 63 207 0.0 0.0 0.00 0.00 0.00 73 1002.7
20260509161545 64 243 0.0 0.0 0.00 0.00 0.00 74 1002.7
20260509160040 64 273 0.0 0.0 0.00 0.00 0.00 75 1002.9
20260509154538 63 211 0.0 0.0 0.00 0.00 0.00 75 1003.1
20260509153034 63 235 0.0 0.0 0.00 0.00 0.00 78 1003.2
20260509151532 62 230 0.0 0.0 0.00 0.00 0.00 78 1003.3
20260509150030 62 236 0.0 0.0 0.00 0.00 0.00 78 1003.5
20260509144533 62 247 0.0 0.0 0.00 0.00 0.00 77 1003.8
20260509143026 61 241 0.0 0.0 0.00 0.00 0.00 77 1003.9
20260509141523 61 225 0.0 0.0 0.00 0.00 0.00 80 1004.0
20260509140019 59 267 0.0 0.0 0.00 0.00 0.00 83 1004.3
20260509134518 58 202 0.0 0.0 0.00 0.00 0.00 86 1004.4
20260509133014 57 245 0.0 0.0 0.00 0.00 0.00 88 1004.6
20260509131509 56 234 0.0 0.0 0.00 0.00 0.00 91 1004.7